Rbgn^[z[y[W
メイン
   新天体発見情報
     Comet C/2022 V2 (Lemmon)
投稿するにはまず登録を

フラット表示 前のトピック | 次のトピック
投稿者 スレッド
佐藤裕久
投稿日時: 2023-5-31 0:30
モデレータ
登録日: 2005-6-12
居住地: 日本
投稿: 2666
オンライン
Comet C/2022 V2 (Lemmon)

2022年11月2日、Mt Lemmonサーベイの1.5-m 反射望遠鏡で得たCCD画像から小惑星状天体が発見
された。他のCCD位置観測者も彗星状と観測した。
小惑星センターのPCCP webpageに公表後、佐藤英貴氏(東京都文京区: 2023 2月2.54-2.55日UT、
60-秒CCD露出16枚のスタック, Utah Desert Remote 天文台, Junction近郊, ユタ州, 米国;強く
集光した8"のコマが見えるが、尾はないと数ヵ月前に報告した。4".9の円形範囲で測定した光度
は19.9等であった。さらに、5月13.2日、同じ望遠鏡で、60-秒CCD露出12枚のスタックでは、強く
集光した8"のコマが見えるが、これも尾がなかった。4".9の円形範囲で測定した光度は18.9等で
あった)らCCD観測者によって彗星状と観測された。

彗星機能は次のとおり、

OC   Date        Reporter           Coma    Tail    PA          Exposures
U94  2023-02-02  H. Sato            8"                           16x60s
Q11  2023-03-19  H. Sato            7"                           25x60s
G00  2023-05-09  M. Jaeger          7"       13"    265 
U94  2023-05-13  H. Sato            8"                           12x60s
Q11  2023-05-16  T. Ikemura         9"                           21x60s

発見位置は次のとおり、

     2022 UT             R.A. (2000) Decl.       Mag.
     Nov.  2.06454   17 59 44.89   +43 39 19.5   20.6
           2.07034   17 59 44.97   +43 39 16.7   21.5
           2.07615   17 59 45.05   +43 39 14.0   21.0
           2.08195   17 59 45.08   +43 39 11.3   20.8

MPCの楕円軌道要素、位置推算表は次のとおり

Orbital elements:
    C/2022 V2 (Lemmon)                                                          
Epoch 2023 Feb. 25.0 TT = JDT 2460000.5                                         
T 2023 Nov. 1.94247 TT                                  Rudenko                 
q   2.0635122            (2000.0)            P               Q                  
z  +0.0271991      Peri.  168.95435     -0.88699351     -0.10120100             
 +/-0.0000006      Node   332.86709     +0.31115846     +0.58994976             
e   0.9438743      Incl.   98.90727     +0.34120805     -0.80107281             
From 297 observations 2022 July 20-2023 May 23, mean residual 0".5.             
                                                                                
Ephemeris:
Date    TT    R. A. (2000) Decl.     Delta      r    Elong.  Phase   m1
2023 04 24    18 42 54.5 +74 06 41   2.9220  2.9768    83.3    19.6  19.1
...
2023 05 09    16 54 46.8 +80 06 31   2.8327  2.8651    81.6    20.4  18.8
...
2023 05 17    15 02 21.6 +81 00 37   2.8041  2.8069    79.8    20.8  18.7
...
2023 05 23    13 40 13.1 +79 57 49   2.7914  2.7638    78.0    21.0  18.6
2023 05 24    13 28 42.4 +79 39 55   2.7900  2.7567    77.6    21.0  18.6
2023 05 25    13 17 55.5 +79 20 16   2.7888  2.7496    77.3    21.1  18.6
...
2023 05 31    12 27 33.6 +76 54 38   2.7855  2.7075    75.1    21.2  18.6
...
2023 06 08    11 48 50.7 +72 56 58   2.7911  2.6523    71.6    21.3  18.5
...
2023 06 23    11 18 54.6 +64 50 43   2.8273  2.5528    64.1    21.0  18.3

(MPEC 2023-K121、CBET 5263)

フラット表示 前のトピック | 次のトピック

題名 投稿者 日時
 » Comet C/2022 V2 (Lemmon) 佐藤裕久 2023-5-31 0:30

投稿するにはまず登録を
 
© 1999 Tsutomu Seki.